Time,TemperatureF,DewpointF,PressureIn,WindDirection,WindDirectionDegrees,WindSpeedMPH,WindSpeedGustMPH,Humidity,HourlyPrecipIn,Conditions,Clouds,dailyrainin,SoftwareType,DateUTC
2013-06-08 00:02:00,57.0,49.0,-100.00,North,-999,-999.0,-999.0,75,0.00,,,0.00,,2013-06-08 07:02:00,
2013-06-08 00:12:00,57.0,49.0,-100.00,North,-999,-999.0,-999.0,75,0.00,,,0.00,,2013-06-08 07:12:00,
2013-06-08 00:22:00,57.0,49.0,-100.00,North,-999,-999.0,-999.0,75,0.00,,,0.00,,2013-06-08 07:22:00,
2013-06-08 00:32:00,57.0,49.0,-100.00,North,-999,-999.0,-999.0,75,0.00,,,0.00,,2013-06-08 07:32:00,
2013-06-08 00:42:00,57.0,49.0,-100.00,North,-999,-999.0,-999.0,75,0.00,,,0.00,,2013-06-08 07:42:00,
2013-06-08 01:02:00,58.0,49.0,-100.00,North,-999,-999.0,-999.0,70,0.00,,,0.00,,2013-06-08 08:02:00,
2013-06-08 01:12:00,58.0,49.0,-100.00,North,-999,-999.0,-999.0,70,0.00,,,0.00,,2013-06-08 08:12:00,
2013-06-08 01:22:00,58.0,49.0,-100.00,North,-999,-999.0,-999.0,70,0.00,,,0.00,,2013-06-08 08:22:00,
2013-06-08 01:32:00,58.0,49.0,-100.00,North,-999,-999.0,-999.0,70,0.00,,,0.00,,2013-06-08 08:32:00,
2013-06-08 01:42:00,58.0,49.0,-100.00,North,-999,-999.0,-999.0,70,0.00,,,0.00,,2013-06-08 08:42:00,
2013-06-08 02:02:00,58.0,49.0,-100.00,North,-999,-999.0,-999.0,71,0.00,,,0.00,,2013-06-08 09:02:00,
2013-06-08 02:12:00,58.0,49.0,-100.00,North,-999,-999.0,-999.0,71,0.00,,,0.00,,2013-06-08 09:12:00,
2013-06-08 02:22:00,58.0,49.0,-100.00,North,-999,-999.0,-999.0,71,0.00,,,0.00,,2013-06-08 09:22:00,
2013-06-08 02:33:00,58.0,49.0,-100.00,North,-999,-999.0,-999.0,71,0.00,,,0.00,,2013-06-08 09:33:00,
2013-06-08 02:42:00,58.0,49.0,-100.00,North,-999,-999.0,-999.0,71,0.00,,,0.00,,2013-06-08 09:42:00,
2013-06-08 03:02:00,58.0,49.0,-100.00,North,-999,-999.0,-999.0,72,0.00,,,0.00,,2013-06-08 10:02:00,
2013-06-08 03:12:00,58.0,49.0,-100.00,North,-999,-999.0,-999.0,72,0.00,,,0.00,,2013-06-08 10:12:00,
2013-06-08 03:22:00,58.0,49.0,-100.00,North,-999,-999.0,-999.0,72,0.00,,,0.00,,2013-06-08 10:22:00,
2013-06-08 03:33:00,58.0,49.0,-100.00,North,-999,-999.0,-999.0,72,0.00,,,0.00,,2013-06-08 10:33:00,
2013-06-08 03:42:00,58.0,49.0,-100.00,North,-999,-999.0,-999.0,72,0.00,,,0.00,,2013-06-08 10:42:00,
2013-06-08 04:02:00,57.0,49.0,-100.00,North,-999,-999.0,-999.0,75,0.00,,,0.00,,2013-06-08 11:02:00,
2013-06-08 04:12:00,57.0,49.0,-100.00,North,-999,-999.0,-999.0,75,0.00,,,0.00,,2013-06-08 11:12:00,
2013-06-08 04:22:00,57.0,49.0,-100.00,North,-999,-999.0,-999.0,75,0.00,,,0.00,,2013-06-08 11:22:00,
2013-06-08 04:32:00,57.0,49.0,-100.00,North,-999,-999.0,-999.0,75,0.00,,,0.00,,2013-06-08 11:32:00,
2013-06-08 04:42:00,57.0,49.0,-100.00,North,-999,-999.0,-999.0,75,0.00,,,0.00,,2013-06-08 11:42:00,
2013-06-08 05:02:00,57.0,49.0,-100.00,North,-999,-999.0,-999.0,74,0.00,,,-99.99,,2013-06-08 12:02:00,
2013-06-08 05:12:00,57.0,49.0,-100.00,North,-999,-999.0,-999.0,74,0.00,,,-99.99,,2013-06-08 12:12:00,
2013-06-08 05:22:00,57.0,49.0,-100.00,North,-999,-999.0,-999.0,74,0.00,,,-99.99,,2013-06-08 12:22:00,
2013-06-08 05:32:00,57.0,49.0,-100.00,North,-999,-999.0,-999.0,74,0.00,,,-99.99,,2013-06-08 12:32:00,
2013-06-08 05:42:00,57.0,49.0,-100.00,North,-999,-999.0,-999.0,74,0.00,,,-99.99,,2013-06-08 12:42:00,
2013-06-08 06:02:00,55.0,49.0,-100.00,North,-999,-999.0,-999.0,80,0.00,,,0.00,,2013-06-08 13:02:00,
2013-06-08 06:12:00,55.0,49.0,-100.00,North,-999,-999.0,-999.0,80,0.00,,,0.00,,2013-06-08 13:12:00,
2013-06-08 06:22:00,55.0,49.0,-100.00,North,-999,-999.0,-999.0,80,0.00,,,0.00,,2013-06-08 13:22:00,
2013-06-08 06:32:00,55.0,49.0,-100.00,North,-999,-999.0,-999.0,80,0.00,,,0.00,,2013-06-08 13:32:00,
2013-06-08 06:42:00,55.0,49.0,-100.00,North,-999,-999.0,-999.0,80,0.00,,,0.00,,2013-06-08 13:42:00,
2013-06-08 07:02:00,52.0,50.0,-100.00,North,-999,-999.0,-999.0,92,0.00,,,0.00,,2013-06-08 14:02:00,
2013-06-08 07:12:00,52.0,50.0,-100.00,North,-999,-999.0,-999.0,92,0.00,,,0.00,,2013-06-08 14:12:00,
2013-06-08 07:22:00,52.0,50.0,-100.00,North,-999,-999.0,-999.0,92,0.00,,,0.00,,2013-06-08 14:22:00,
2013-06-08 07:32:00,52.0,50.0,-100.00,North,-999,-999.0,-999.0,92,0.00,,,0.00,,2013-06-08 14:32:00,
2013-06-08 07:42:00,52.0,50.0,-100.00,North,-999,-999.0,-999.0,92,0.00,,,0.00,,2013-06-08 14:42:00,
2013-06-08 08:02:00,54.0,52.0,-100.00,North,-999,-999.0,-999.0,93,0.00,,,0.00,,2013-06-08 15:02:00,
2013-06-08 08:12:00,54.0,52.0,-100.00,North,-999,-999.0,-999.0,93,0.00,,,0.00,,2013-06-08 15:12:00,
2013-06-08 08:22:00,54.0,52.0,-100.00,North,-999,-999.0,-999.0,93,0.00,,,0.00,,2013-06-08 15:22:00,
2013-06-08 08:32:00,54.0,52.0,-100.00,North,-999,-999.0,-999.0,93,0.00,,,0.00,,2013-06-08 15:32:00,
2013-06-08 08:42:00,54.0,52.0,-100.00,North,-999,-999.0,-999.0,93,0.00,,,0.00,,2013-06-08 15:42:00,
2013-06-08 09:03:00,56.0,52.0,-100.00,North,-999,-999.0,-999.0,88,0.00,,,0.00,,2013-06-08 16:03:00,
2013-06-08 09:12:00,56.0,52.0,-100.00,North,-999,-999.0,-999.0,88,0.00,,,0.00,,2013-06-08 16:12:00,
2013-06-08 09:23:00,56.0,52.0,-100.00,North,-999,-999.0,-999.0,88,0.00,,,0.00,,2013-06-08 16:23:00,
2013-06-08 09:32:00,56.0,52.0,-100.00,North,-999,-999.0,-999.0,88,0.00,,,0.00,,2013-06-08 16:32:00,
2013-06-08 09:42:00,56.0,52.0,-100.00,North,-999,-999.0,-999.0,88,0.00,,,0.00,,2013-06-08 16:42:00,
2013-06-08 10:02:00,58.0,-99.9,-100.00,North,-999,-999.0,-999.0,-999,-99.99,,,-99.99,,2013-06-08 17:02:00,
2013-06-08 10:12:00,58.0,-99.9,-100.00,North,-999,-999.0,-999.0,-999,-99.99,,,-99.99,,2013-06-08 17:12:00,
2013-06-08 10:23:00,58.0,-99.9,-100.00,North,-999,-999.0,-999.0,-999,-99.99,,,-99.99,,2013-06-08 17:23:00,
2013-06-08 10:32:00,58.0,-99.9,-100.00,North,-999,-999.0,-999.0,-999,-99.99,,,-99.99,,2013-06-08 17:32:00,
2013-06-08 10:42:00,58.0,-99.9,-100.00,North,-999,-999.0,-999.0,-999,-99.99,,,-99.99,,2013-06-08 17:42:00,
2013-06-08 11:02:00,61.0,52.0,-100.00,North,-999,-999.0,-999.0,72,-99.99,,,0.00,,2013-06-08 18:02:00,
2013-06-08 11:12:00,61.0,52.0,-100.00,North,-999,-999.0,-999.0,72,-99.99,,,0.00,,2013-06-08 18:12:00,
2013-06-08 11:22:00,61.0,52.0,-100.00,North,-999,-999.0,-999.0,72,-99.99,,,0.00,,2013-06-08 18:22:00,
2013-06-08 11:32:00,61.0,52.0,-100.00,North,-999,-999.0,-999.0,72,-99.99,,,0.00,,2013-06-08 18:32:00,
2013-06-08 11:41:00,61.0,52.0,-100.00,North,-999,-999.0,-999.0,72,-99.99,,,0.00,,2013-06-08 18:41:00,
2013-06-08 12:02:00,62.0,52.0,-100.00,North,-999,-999.0,-999.0,71,0.00,,,-99.99,,2013-06-08 19:02:00,
2013-06-08 12:12:00,62.0,52.0,-100.00,North,-999,-999.0,-999.0,71,0.00,,,-99.99,,2013-06-08 19:12:00,
2013-06-08 12:22:00,62.0,52.0,-100.00,North,-999,-999.0,-999.0,71,0.00,,,-99.99,,2013-06-08 19:22:00,
2013-06-08 12:32:00,62.0,52.0,-100.00,North,-999,-999.0,-999.0,71,0.00,,,-99.99,,2013-06-08 19:32:00,
2013-06-08 12:42:00,62.0,52.0,-100.00,North,-999,-999.0,-999.0,71,0.00,,,-99.99,,2013-06-08 19:42:00,
2013-06-08 13:02:00,61.0,52.0,-100.00,North,-999,-999.0,-999.0,72,0.00,,,0.00,,2013-06-08 20:02:00,
2013-06-08 13:12:00,61.0,52.0,-100.00,North,-999,-999.0,-999.0,72,0.00,,,0.00,,2013-06-08 20:12:00,
2013-06-08 13:22:00,61.0,52.0,-100.00,North,-999,-999.0,-999.0,72,0.00,,,0.00,,2013-06-08 20:22:00,
2013-06-08 13:32:00,61.0,52.0,-100.00,North,-999,-999.0,-999.0,72,0.00,,,0.00,,2013-06-08 20:32:00,
2013-06-08 13:42:00,61.0,52.0,-100.00,North,-999,-999.0,-999.0,72,0.00,,,0.00,,2013-06-08 20:42:00,
2013-06-08 13:43:00,61.0,52.0,-100.00,North,-999,-999.0,-999.0,74,0.00,,,0.00,,2013-06-08 20:43:00,
2013-06-08 14:02:00,61.0,52.0,-100.00,North,-999,-999.0,-999.0,74,0.00,,,0.00,,2013-06-08 21:02:00,
2013-06-08 14:12:00,61.0,52.0,-100.00,North,-999,-999.0,-999.0,74,0.00,,,0.00,,2013-06-08 21:12:00,
2013-06-08 14:22:00,61.0,52.0,-100.00,North,-999,-999.0,-999.0,74,0.00,,,0.00,,2013-06-08 21:22:00,
2013-06-08 14:33:00,61.0,52.0,-100.00,North,-999,-999.0,-999.0,74,0.00,,,0.00,,2013-06-08 21:33:00,
2013-06-08 15:02:00,60.0,52.0,-100.00,North,-999,-999.0,-999.0,75,-99.99,,,-99.99,,2013-06-08 22:02:00,
2013-06-08 15:12:00,60.0,52.0,-100.00,North,-999,-999.0,-999.0,75,-99.99,,,-99.99,,2013-06-08 22:12:00,
2013-06-08 15:22:00,60.0,52.0,-100.00,North,-999,-999.0,-999.0,75,-99.99,,,-99.99,,2013-06-08 22:22:00,
2013-06-08 15:33:00,60.0,52.0,-100.00,North,-999,-999.0,-999.0,75,-99.99,,,-99.99,,2013-06-08 22:33:00,
2013-06-08 15:42:00,60.0,52.0,-100.00,North,-999,-999.0,-999.0,75,-99.99,,,-99.99,,2013-06-08 22:42:00,
2013-06-08 16:02:00,60.0,52.0,-100.00,North,-999,-999.0,-999.0,75,0.00,,,0.00,,2013-06-08 23:02:00,
2013-06-08 16:12:00,60.0,52.0,-100.00,North,-999,-999.0,-999.0,75,0.00,,,0.00,,2013-06-08 23:12:00,
2013-06-08 16:22:00,60.0,52.0,-100.00,North,-999,-999.0,-999.0,75,0.00,,,0.00,,2013-06-08 23:22:00,
2013-06-08 16:32:00,60.0,52.0,-100.00,North,-999,-999.0,-999.0,75,0.00,,,0.00,,2013-06-08 23:32:00,
2013-06-08 16:42:00,60.0,52.0,-100.00,North,-999,-999.0,-999.0,75,0.00,,,0.00,,2013-06-08 23:42:00,
2013-06-08 17:02:00,60.0,52.0,-100.00,North,-999,-999.0,-999.0,76,0.00,,,0.00,,2013-06-09 00:02:00,
2013-06-08 17:12:00,60.0,52.0,-100.00,North,-999,-999.0,-999.0,76,0.00,,,0.00,,2013-06-09 00:12:00,
2013-06-08 17:22:00,60.0,52.0,-100.00,North,-999,-999.0,-999.0,76,0.00,,,0.00,,2013-06-09 00:22:00,
2013-06-08 17:32:00,60.0,52.0,-100.00,North,-999,-999.0,-999.0,76,0.00,,,0.00,,2013-06-09 00:32:00,
2013-06-08 17:42:00,60.0,52.0,-100.00,North,-999,-999.0,-999.0,76,0.00,,,0.00,,2013-06-09 00:42:00,
2013-06-08 18:02:00,60.0,52.0,-100.00,North,-999,-999.0,-999.0,76,0.00,,,0.00,,2013-06-09 01:02:00,
2013-06-08 18:12:00,60.0,52.0,-100.00,North,-999,-999.0,-999.0,76,0.00,,,0.00,,2013-06-09 01:12:00,
2013-06-08 18:22:00,60.0,52.0,-100.00,North,-999,-999.0,-999.0,76,0.00,,,0.00,,2013-06-09 01:22:00,
2013-06-08 18:32:00,60.0,52.0,-100.00,North,-999,-999.0,-999.0,76,0.00,,,0.00,,2013-06-09 01:32:00,
2013-06-08 18:42:00,60.0,52.0,-100.00,North,-999,-999.0,-999.0,76,0.00,,,0.00,,2013-06-09 01:42:00,
2013-06-08 19:02:00,60.0,53.0,-100.00,North,-999,-999.0,-999.0,79,0.00,,,0.00,,2013-06-09 02:02:00,
2013-06-08 19:12:00,60.0,53.0,-100.00,North,-999,-999.0,-999.0,79,0.00,,,0.00,,2013-06-09 02:12:00,
2013-06-08 19:22:00,60.0,53.0,-100.00,North,-999,-999.0,-999.0,79,0.00,,,0.00,,2013-06-09 02:22:00,
2013-06-08 19:32:00,60.0,53.0,-100.00,North,-999,-999.0,-999.0,79,0.00,,,0.00,,2013-06-09 02:32:00,
2013-06-08 19:42:00,60.0,53.0,-100.00,North,-999,-999.0,-999.0,79,0.00,,,0.00,,2013-06-09 02:42:00,
2013-06-08 19:43:00,58.0,53.0,-100.00,North,-999,-999.0,-999.0,83,0.00,,,-99.99,,2013-06-09 02:43:00,
2013-06-08 20:02:00,58.0,53.0,-100.00,North,-999,-999.0,-999.0,83,0.00,,,-99.99,,2013-06-09 03:02:00,
2013-06-08 20:12:00,58.0,53.0,-100.00,North,-999,-999.0,-999.0,83,0.00,,,-99.99,,2013-06-09 03:12:00,
2013-06-08 20:22:00,58.0,53.0,-100.00,North,-999,-999.0,-999.0,83,0.00,,,-99.99,,2013-06-09 03:22:00,
2013-06-08 20:32:00,58.0,53.0,-100.00,North,-999,-999.0,-999.0,83,0.00,,,-99.99,,2013-06-09 03:32:00,
2013-06-08 21:02:00,57.0,53.0,-100.00,North,-999,-999.0,-999.0,84,0.00,,,0.00,,2013-06-09 04:02:00,
2013-06-08 21:12:00,57.0,53.0,-100.00,North,-999,-999.0,-999.0,84,0.00,,,0.00,,2013-06-09 04:12:00,
2013-06-08 21:22:00,57.0,53.0,-100.00,North,-999,-999.0,-999.0,84,0.00,,,0.00,,2013-06-09 04:22:00,
2013-06-08 21:32:00,57.0,53.0,-100.00,North,-999,-999.0,-999.0,84,0.00,,,0.00,,2013-06-09 04:32:00,
2013-06-08 21:42:00,57.0,53.0,-100.00,North,-999,-999.0,-999.0,84,0.00,,,0.00,,2013-06-09 04:42:00,
2013-06-08 22:02:00,57.0,53.0,-100.00,North,-999,-999.0,-999.0,85,0.00,,,0.00,,2013-06-09 05:02:00,
2013-06-08 22:12:00,57.0,53.0,-100.00,North,-999,-999.0,-999.0,85,0.00,,,0.00,,2013-06-09 05:12:00,
2013-06-08 22:22:00,57.0,53.0,-100.00,North,-999,-999.0,-999.0,85,0.00,,,0.00,,2013-06-09 05:22:00,
2013-06-08 22:32:00,57.0,53.0,-100.00,North,-999,-999.0,-999.0,85,0.00,,,0.00,,2013-06-09 05:32:00,
2013-06-08 22:42:00,57.0,53.0,-100.00,North,-999,-999.0,-999.0,85,0.00,,,0.00,,2013-06-09 05:42:00,
2013-06-08 23:02:00,58.0,53.0,-100.00,North,-999,-999.0,-999.0,83,0.00,,,0.00,,2013-06-09 06:02:00,
2013-06-08 23:11:00,58.0,53.0,-100.00,North,-999,-999.0,-999.0,83,0.00,,,0.00,,2013-06-09 06:11:00,
2013-06-08 23:22:00,58.0,53.0,-100.00,North,-999,-999.0,-999.0,83,0.00,,,0.00,,2013-06-09 06:22:00,
2013-06-08 23:32:00,58.0,53.0,-100.00,North,-999,-999.0,-999.0,83,0.00,,,0.00,,2013-06-09 06:32:00,
2013-06-08 23:42:00,58.0,53.0,-100.00,North,-999,-999.0,-999.0,83,0.00,,,0.00,,2013-06-09 06:42:00,